User: anonymous   Login
Location: Friaudour
(46.0460°N, 1.2873°E)
Time: 16:01:24
(UTC+00:00)
Language:

Cosmos 1437 Rocket - Orbit

View from above orbital plane
View from above orbital plane
View from above satellite
View from above satellite

Ground track
Ground track

The orbit data is extracted from the following two-line orbital elements,

1 13771U 83003B   20271.51235888  .00000808  00000-0  46472-4 0  9998
2 13771  81.1600  61.6914 0041123 350.8953   9.1522 15.10622208 54654
Epoch (UTC): 27 September 2020 12:17:47
Eccentricity: 0.0041123
inclination: 81.1600°
perigee height: 506 km
apogee height: 563 km
right ascension of ascending node: 61.6914°
argument of perigee: 350.8953°
revolutions per day: 15.10622208
mean anomaly at epoch: 9.1522°
orbit number at epoch: 5465

The dashed part of the orbit path shows where the satellite is in the earth's shadow,  

DLR